AL7BX-WX Weather Reports


time (UTC)temp
C
wind
direction
speed
KPH
gust
KPH
rain 1hr
cm
rain 24hr
cm
rain mn
cm
humidity
%
barometer
mb
20260505112703 2 185 0.0 4.8 0.00 0.00 0.00 58
20260505111803 2 186 1.6 6.4 0.00 0.00 0.00 59
20260505111113 3 186 1.6 6.4 0.00 0.00 0.00 57
20260505101803 2 207 0.0 3.2 0.00 0.00 0.00 61
20260505100903 2 207 0.0 3.2 0.00 0.00 0.00 60
20260505100212 2 207 1.6 4.8 0.00 0.00 0.00 60
20260505095403 2 207 3.2 4.8 0.00 0.00 0.00 58
20260505094503 3 207 3.2 6.4 0.00 0.00 0.00 56
20260505093603 3 208 1.6 4.8 0.00 0.00 0.00 53
20260505092914 4 207 1.6 4.8 0.00 0.00 0.00 52
20260505091803 4 207 3.2 6.4 0.00 0.00 0.00 51
20260505090903 4 206 3.2 6.4 0.00 0.00 0.00 50
20260505090003 5 206 3.2 6.4 0.00 0.00 0.00 49
20260505085403 5 205 3.2 8.0 0.00 0.00 0.00 49
20260505084503 5 190 1.6 6.4 0.00 0.00 0.00 48
20260505083812 5 189 1.6 6.4 0.00 0.00 0.00 46
20260505082703 5 188 3.2 6.4 0.00 0.00 0.00 45
20260505082013 6 186 3.2 8.0 0.00 0.00 0.00 45
20260505081114 6 176 3.2 6.4 0.00 0.00 0.00 44
20260505080003 6 172 3.2 6.4 0.00 0.00 0.00 43
20260505075403 6 172 3.2 8.0 0.00 0.00 0.00 43
20260505074503 6 171 3.2 6.4 0.00 0.00 0.00 42
20260505073603 5 172 1.6 6.4 0.00 0.00 0.00 42
20260505072703 6 175 4.8 11.3 0.00 0.00 0.00 42
20260505071803 6 186 6.4 11.3 0.00 0.00 0.00 42
20260505070903 5 187 4.8 9.7 0.00 0.00 0.00 42
20260505070003 5 186 3.2 8.0 0.00 0.00 0.00 43
20260505065403 5 187 3.2 8.0 0.00 0.00 0.00 43
20260505064503 5 174 3.2 9.7 0.00 0.00 0.00 42
20260505063603 6 154 1.6 4.8 0.00 0.00 0.00 40
20260505062703 6 154 0.0 4.8 0.00 0.00 0.00 38
20260505061803 7 154 0.0 1.6 0.00 0.00 0.00 36
20260505060903 8 153 1.6 4.8 0.00 0.00 0.00 34
20260505060215 9 151 3.2 8.0 0.00 0.00 0.00 32
20260505055403 9 145 4.8 11.3 0.00 0.00 0.00 31
20260505054503 10 163 4.8 11.3 0.00 0.00 0.00 31
20260505053603 10 149 6.4 11.3 0.00 0.00 0.00 30
20260505052703 10 136 6.4 12.9 0.00 0.00 0.00 30
20260505051803 10 139 6.4 14.5 0.00 0.00 0.00 31
20260505050903 9 148 4.8 11.3 0.00 0.00 0.00 33
20260505040903 11 166 4.8 14.5 0.00 0.00 0.00 32
20260505040004 11 166 4.8 12.9 0.00 0.00 0.00 33
20260505035403 11 164 6.4 19.3 0.00 0.00 0.00 33
20260505034503 11 171 4.8 12.9 0.00 0.00 0.00 33
20260505033603 11 176 6.4 16.1 0.00 0.00 0.00 34
20260505032703 12 171 8.0 17.7 0.00 0.00 0.00 34
20260505031803 12 185 6.4 16.1 0.00 0.00 0.00 34
20260505030903 12 182 9.7 17.7 0.00 0.00 0.00 34
20260505030003 12 184 11.3 20.9 0.00 0.00 0.00 34
20260505025403 12 184 11.3 20.9 0.00 0.00 0.00 34
20260505024503 12 186 12.9 24.1 0.00 0.00 0.00 34
20260505023814 12 188 12.9 24.1 0.00 0.00 0.00 33
20260505022703 13 194 9.7 20.9 0.00 0.00 0.00 34
20260505021803 13 194 11.3 27.4 0.00 0.00 0.00 34
20260505020903 14 195 12.9 27.4 0.00 0.00 0.00 34
20260505020213 14 190 16.1 33.8 0.00 0.00 0.00 35
20260505015403 15 187 16.1 33.8 0.00 0.00 0.00 35
20260505014714 15 192 14.5 27.4 0.00 0.00 0.00 36
20260505013603 15 197 14.5 29.0 0.00 0.00 0.00 37
20260505012703 15 198 11.3 24.1 0.00 0.00 0.00 38
20260505011803 15 192 16.1 30.6 0.00 0.00 0.00 38
20260505010903 15 191 16.1 27.4 0.00 0.00 0.00 38
20260505010003 16 190 16.1 32.2 0.00 0.00 0.00 37
20260505005612 16 193 14.5 32.2 0.00 0.00 0.00 37
20260505004503 16 189 17.7 30.6 0.00 0.00 0.00 37
20260505003813 17 193 16.1 30.6 0.00 0.00 0.00 37
20260505002912 17 190 17.7 30.6 0.00 0.00 0.00 37
20260505001803 16 193 12.9 27.4 0.00 0.00 0.00 36
20260505001113 16 190 14.5 35.4 0.00 0.00 0.00 36
20260505000003 16 197 12.9 24.1 0.00 0.00 0.00 35
20260504235403 17 195 14.5 29.0 0.00 0.00 0.00 35
20260504234503 17 189 14.5 37.0 0.00 0.00 0.00 34
20260504233813 17 178 14.5 29.0 0.00 0.00 0.00 33
20260504232703 17 206 16.1 30.6 0.00 0.00 0.00 34
20260504232013 17 203 14.5 29.0 0.00 0.00 0.00 33
20260504231113 17 190 16.1 33.8 0.00 0.00 0.00 33
20260504230003 17 197 19.3 33.8 0.00 0.00 0.00 33
20260504225403 17 210 16.1 33.8 0.00 0.00 0.00 33
20260504224503 18 202 17.7 33.8 0.00 0.00 0.00 34
20260504223603 18 205 16.1 37.0 0.00 0.00 0.00 34
20260504222703 18 203 17.7 32.2 0.00 0.00 0.00 33
20260504222013 18 203 17.7 35.4 0.00 0.00 0.00 33
20260504220903 19 204 17.7 32.2 0.00 0.00 0.00 31
20260504220003 18 206 16.1 33.8 0.00 0.00 0.00 32
20260504215403 18 208 16.1 32.2 0.00 0.00 0.00 33
20260504214713 19 209 16.1 33.8 0.00 0.00 0.00 32
20260504213603 19 203 16.1 33.8 0.00 0.00 0.00 32
20260504212703 19 211 14.5 37.0 0.00 0.00 0.00 32
20260504211803 18 208 16.1 37.0 0.00 0.00 0.00 32
20260504210903 18 220 12.9 25.7 0.00 0.00 0.00 33
20260504210004 19 183 17.7 32.2 0.00 0.00 0.00 33
20260504205403 20 175 17.7 38.6 0.00 0.00 0.00 32
20260504204714 20 180 19.3 38.6 0.00 0.00 0.00 33
20260504203603 19 203 19.3 33.8 0.00 0.00 0.00 33
20260504202703 18 207 17.7 30.6 0.00 0.00 0.00 35
20260504201803 18 209 16.1 32.2 0.00 0.00 0.00 36
20260504200903 18 204 16.1 33.8 0.00 0.00 0.00 36
20260504200003 18 211 14.5 33.8 0.00 0.00 0.00 36
20260504195403 18 216 16.1 33.8 0.00 0.00 0.00 36
20260504194503 18 208 14.5 29.0 0.00 0.00 0.00 38
20260504193813 19 198 12.9 29.0 0.00 0.00 0.00 36
20260504192703 18 201 14.5 27.4 0.00 0.00 0.00 35
20260504191803 18 212 14.5 35.4 0.00 0.00 0.00 38
20260504191113 18 212 16.1 33.8 0.00 0.00 0.00 40
20260504190003 18 193 16.1 30.6 0.00 0.00 0.00 39
20260504185403 18 195 14.5 30.6 0.00 0.00 0.00 40
20260504184503 18 188 16.1 30.6 0.00 0.00 0.00 41
20260504183603 18 185 16.1 29.0 0.00 0.00 0.00 40
20260504182703 17 177 16.1 27.4 0.00 0.00 0.00 39
20260504181803 17 175 16.1 29.0 0.00 0.00 0.00 42
20260504180903 17 194 19.3 37.0 0.00 0.00 0.00 42
20260504180214 18 188 19.3 32.2 0.00 0.00 0.00 41
20260504175403 17 186 19.3 35.4 0.00 0.00 0.00 43
20260504174503 16 189 16.1 30.6 0.00 0.00 0.00 48
20260504173603 16 195 16.1 33.8 0.00 0.00 0.00 45
20260504172703 17 206 4.8 30.6 0.00 0.00 0.00 42
20260504172013 16 234 1.6 6.4 0.00 0.00 0.00 45
20260504170903 16 269 6.4 11.3 0.00 0.00 0.00 45
20260504170214 16 273 6.4 11.3 0.00 0.00 0.00 47
20260504150903 13 144 8.0 22.5 0.00 0.00 0.00 52
20260504140903 12 171 3.2 4.8 0.00 0.00 0.00 65